WetterOnline ( https://www.wetteronline.de )

Wetter aktuell Södra Sunderbyn

Aktuelles Wetter: Lulea (17m)

6-stündlich | Neueste Meldungen
Ortszeit Temperatur Wetter
Mi, 06.07. 20:00 17.2° C wolkig
Mi, 06.07. 14:00 17.5° C wolkig
Mi, 06.07. 8:00 15.2° C wolkenlos
Mi, 06.07. 2:00 12.4° C wolkenlos
Di, 05.07. 20:00 17.3° C leicht bewölkt
Di, 05.07. 14:00 17.0° C bedeckt
Di, 05.07. 8:00 18.7° C leicht bewölkt
Di, 05.07. 2:00 16.2° C wolkig
Ortszeit Temperatur Wetter
Mi, 06.07. 23:00 12.4° C wolkenlos
Mi, 06.07. 22:00 15.0° C wolkenlos
Mi, 06.07. 21:00 16.1° C wolkenlos
Mi, 06.07. 20:00 17.2° C wolkig
Mi, 06.07. 19:00 17.7° C bewölkt
Mi, 06.07. 18:00 17.7° C fast wolkenlos
Mi, 06.07. 17:00 18.9° C wolkig
Ortszeit Relative Feuchte Sichtweite
Mi, 06.07. 20:00 67% 45 km
Mi, 06.07. 14:00 65% 40 km
Mi, 06.07. 8:00 63% 45 km
Mi, 06.07. 2:00 79% 50 km
Di, 05.07. 20:00 66% 45 km
Di, 05.07. 14:00 84% 40 km
Di, 05.07. 8:00 82% 35 km
Di, 05.07. 2:00 95% 23 km
Ortszeit Relative Feuchte Sichtweite
Mi, 06.07. 23:00 71% 45 km
Mi, 06.07. 22:00 59% 45 km
Mi, 06.07. 21:00 54% 45 km
Mi, 06.07. 20:00 67% 45 km
Mi, 06.07. 19:00 64% 45 km
Mi, 06.07. 18:00 61% 40 km
Mi, 06.07. 17:00 50% 45 km
Ortszeit Niederschlagsmenge Niederschlagsart
Mi, 06.07. 20:00 0.0 l/m2 in 12 Std. -
Mi, 06.07. 14:00 0.0 l/m2 in 6 Std. -
Mi, 06.07. 8:00 0.0 l/m2 in 12 Std. -
Mi, 06.07. 2:00 0.0 l/m2 in 6 Std. -
Di, 05.07. 20:00 4 l/m2 in 12 Std. Regenschauer
Di, 05.07. 14:00 4 l/m2 in 6 Std. Regenschauer
Di, 05.07. 8:00 4 l/m2 in 12 Std. -
Di, 05.07. 2:00 4 l/m2 in 6 Std. Regenschauer
Ortszeit Niederschlagsmenge Niederschlagsart
Mi, 06.07. 23:00 0.0 l/m2 in 1 Std. -
Mi, 06.07. 22:00 0.0 l/m2 in 1 Std. -
Mi, 06.07. 21:00 0.0 l/m2 in 1 Std. -
Mi, 06.07. 20:00 0.0 l/m2 in 1 Std. -
Mi, 06.07. 19:00 0.0 l/m2 in 1 Std. -
Mi, 06.07. 18:00 0.0 l/m2 in 1 Std. -
Mi, 06.07. 17:00 0.0 l/m2 in 1 Std. -
Ortszeit Stärke Spitze Richtung
km/h Bft. km/h Grad Sektor
Mi, 06.07. 20:00 14 3 29 190° S
Mi, 06.07. 14:00 22 4 - 180° S
Mi, 06.07. 8:00 14 3 - 260° W
Mi, 06.07. 2:00 18 3 - 260° W
Di, 05.07. 20:00 11 2 - 240° SW
Di, 05.07. 14:00 18 3 - 180° S
Di, 05.07. 8:00 14 3 - 140° SO
Di, 05.07. 2:00 7 2 - 120° SO
Ortszeit Stärke Spitze Richtung
km/h Bft. km/h Grad Sektor
Mi, 06.07. 23:00 0 0 4 - -
Mi, 06.07. 22:00 0 0 25 - -
Mi, 06.07. 21:00 18 3 32 310° NW
Mi, 06.07. 20:00 14 3 29 190° S
Mi, 06.07. 19:00 22 4 32 190° S
Mi, 06.07. 18:00 18 3 40 180° S
Mi, 06.07. 17:00 22 4 32 190° S
Ortszeit Untergrenze Bedeckung Gattung
total tief tief mittel hoch
Mi, 06.07. 20:00 1800 m 5/8 5/8 - - -
Mi, 06.07. 14:00 1500 m 6/8 4/8 - - -
Mi, 06.07. 8:00 - 0/8 0/8 - - -
Mi, 06.07. 2:00 - 0/8 0/8 - - -
Di, 05.07. 20:00 1800 m 5/8 3/8 - - -
Di, 05.07. 14:00 420 m 8/8 8/8 - - -
Di, 05.07. 8:00 1440 m 3/8 3/8 - - -
Di, 05.07. 2:00 1500 m 6/8 6/8 - - -
Ortszeit Bedeckungsgrad in Achtel und Wolkenuntergrenze
Mi, 06.07. 23:00 keine Wolken
Mi, 06.07. 22:00 keine Wolken
Mi, 06.07. 21:00 keine Wolken
Mi, 06.07. 20:00 3(1800m) 5(2100m)
Mi, 06.07. 19:00 6(1800m) 7(2400m)
Mi, 06.07. 18:00 1(1800m)
Mi, 06.07. 17:00 6(1800m)
Ortszeit Luftdruck NN (hPa) Tendenz (hPa in 3 Std.)
Mi, 06.07. 20:00 1003 - 0,4
Mi, 06.07. 14:00 1004 - 0,7
Mi, 06.07. 8:00 1005 + 0,4
Mi, 06.07. 2:00 1003 + 0,6
Di, 05.07. 20:00 1002 - 0,3
Di, 05.07. 14:00 1003 - 1,0
Di, 05.07. 8:00 1005 - 1,6
Di, 05.07. 2:00 1008 - 1,2
Ortszeit Luftdruck NN (hPa) Tendenz (hPa in 3 Std.)
Mi, 06.07. 23:00 1003 + 0,5
Mi, 06.07. 22:00 1003 + 0,4
Mi, 06.07. 21:00 1003 + 0,1
Mi, 06.07. 20:00 1003 - 0,4
Mi, 06.07. 19:00 1003 - 0,7
Mi, 06.07. 18:00 1003 - 0,7
Mi, 06.07. 17:00 1003 - 0,8
Ortszeit Schneehöhe (cm)
Mi, 06.07. 20:00 -
Mi, 06.07. 14:00 -
Mi, 06.07. 8:00 -
Mi, 06.07. 2:00 -
Di, 05.07. 20:00 -
Di, 05.07. 14:00 -
Di, 05.07. 8:00 -
Di, 05.07. 2:00 -
Ortszeit Schneehöhe (cm)
Mi, 06.07. 23:00 -
Mi, 06.07. 22:00 -
Mi, 06.07. 21:00 -
Mi, 06.07. 20:00 -
Mi, 06.07. 19:00 -
Mi, 06.07. 18:00 -
Mi, 06.07. 17:00 -
Link zu dieser Seite / Seite empfehlen

Das Wetter in ...